STARLINK-1154, 45198

Orbit data source: Space-Track

STARLINK-1154, 45198 is a payload satellite owned by SpaceX/Seattle (US) in LEO that was launched on Mon, 17 Feb 2020 UTC via an FALCON 9 launch vehicle from the Air Force Eastern Test Range (AFETR). Payload-class satellites include a variety of spacecraft equipped with specific instruments for various scientific and technological missions. These include communications satellites like Starlink; space stations such as the ISS; scientific satellites like the Hubble; Earth observation satellites from companies like Planet Labs, Umbra, and HawkEye 360; GPS; miniature CubeSats for education and research; and military/defense satellites.

Loading next visibility...
Identifier
45198, 2020-012W
Orbit
LEO
Country
Flag of USUS
Related business
Manufacturer
SpaceX/Seattle
Mission
Partially operational Commercial Communications
Bus & Motor
STARLINK, Unknown motor
Mass
260 kg wet, ~248 kg dry
Launch date (UTC)
2020-02-17 (6 years ago)
Launch vehicle
FALCON 9
Launch site
Air Force Eastern Test Range (AFETR)
Object type
Payload
Rocket body
Debris
Shape & HBR
Box + 1 Pan, 10.1 m
Radar Cross Section
13.562 m², Large (>1 m²)

Expand to show TLE details & history
Last TLE update: 9 hours ago

TLE from 9 hours ago
0 STARLINK-1154
1 45198U 20012W   26124.62965402  .00093299  00000-0  13552-2 0  9991
2 45198  53.0426 101.2844 0003662   9.5770 350.5309 15.55049998343970
Epoch: 2026-05-04T15:06Z
TLE epoch observation values (Epoch: 2026-05-04T15:06:42.107Z)
Latitude
-0.00003°
Longitude
12.09283°
Altitude
400.455 km
Speed
7.673 km/s
True Right ascension
06h 45m 08s
True Declination
0° 00' 00"
Sunlit
Object was in daylight at epoch
Visualization orbit readout
Latitude
Unknown
Longitude
Unknown
Altitude
Unknown
Speed
Unknown
Apparent Right ascension
Unknown
Apparent Declination
Unknown
Sunlit
N/A
Visualization observer readout
Local Sidereal Time
07:39:54
Azimuth
Unknown
Elevation
Unknown
Doppler factor
Unknown
Orbital elements
Apogee altitude
404.769 km
Perigee altitude
399.803 km
Semi-major axis
6,780.423 km
Eccentricity
0.00037
Inclination
53.0426°
RAAN
101.2844°
Arg. of periapsis
9.577°
True anomaly
350.52399°
Mean anomaly
350.5309°
Eccentric anomaly
350.52745°
Mean motion
3.88739 °/min
Orbital period
92.61 mins
BSTAR
0.0013552
Loading maneuver chart data...
Computing Atmospheric mass density...
Loading historical data...
Loading historical data...
Loading historical data...
Loading historical data...
Loading historical data...
Loading historical data...
Loading historical data...

Documentation

Showing up to 5 results
|